Location: Arbon
(43.0005°N, 0.7472°E)
Time: 11:47:14
(UTC+00:00)

BREEZE-M DEB (TANK) - Pass Details

Date: 22 April 2026
Orbit: 312 x 13096 km, 49.6° (Epoch: 14 May)

Event Time Altitude Azimuth Distance (km) Brightness Sun altitude
Rises 19:48:02 0° 283° (WNW) 2,042 7.4 -11.0°
Reaches altitude 10° 19:49:49 10° 300° (WNW) 1,240 6.2 -11.3°
Maximum altitude 19:51:50 25° 2° (N) 841 4.1 -11.6°
Drops below altitude 10° 19:55:02 10° 61° (ENE) 1,999 5.4 -12.1°
Enters shadow 19:57:51 - 72° (ENE) 3,340 6.4 -12.5°
